TimeMST,TemperatureF,Dew PointF,Humidity,Sea Level PressureIn,VisibilityMPH,Wind Direction,Wind SpeedMPH,Gust SpeedMPH,PrecipitationIn,Events,Conditions,WindDirDegrees,DateUTC
12:53 AM,34.0,21.0,59,29.90,10.0,WNW,3.5,-,N/A,,Clear,290,2014-02-15 07:53:00
1:53 AM,42.1,21.0,43,29.85,10.0,NNW,13.8,-,N/A,,Clear,330,2014-02-15 08:53:00
2:53 AM,51.1,19.9,29,29.83,10.0,WNW,18.4,-,N/A,,Clear,290,2014-02-15 09:53:00
3:53 AM,48.9,19.0,31,29.85,10.0,Calm,Calm,-,N/A,,Clear,0,2014-02-15 10:53:00
4:53 AM,43.0,17.1,35,29.88,10.0,ESE,5.8,-,N/A,,Clear,110,2014-02-15 11:53:00
5:53 AM,42.1,17.1,37,29.92,10.0,SE,10.4,-,N/A,,Clear,140,2014-02-15 12:53:00
6:53 AM,52.0,16.0,24,29.90,10.0,West,8.1,-,N/A,,Clear,260,2014-02-15 13:53:00
7:53 AM,55.9,14.0,19,29.92,10.0,NNW,9.2,20.7,N/A,,Clear,340,2014-02-15 14:53:00
8:53 AM,54.0,17.1,23,29.95,10.0,SSE,10.4,-,N/A,,Clear,160,2014-02-15 15:53:00
9:53 AM,57.9,16.0,19,29.92,10.0,ESE,10.4,-,N/A,,Clear,110,2014-02-15 16:53:00
10:48 AM,66.2,3.2,8,30.07,10.0,West,28.8,39.1,N/A,,Clear,270,2014-02-15 17:48:00
10:53 AM,66.9,3.9,8,29.89,10.0,West,28.8,40.3,N/A,,Clear,270,2014-02-15 17:53:00
11:53 AM,66.0,1.9,8,29.88,10.0,WNW,20.7,34.5,N/A,,Clear,290,2014-02-15 18:53:00
12:53 PM,66.9,1.0,7,29.86,10.0,WNW,28.8,35.7,N/A,,Clear,290,2014-02-15 19:53:00
1:53 PM,64.9,1.9,8,29.85,10.0,West,25.3,33.4,N/A,,Clear,280,2014-02-15 20:53:00
2:53 PM,64.9,3.9,9,29.83,10.0,WNW,21.9,-,N/A,,Clear,290,2014-02-15 21:53:00
3:53 PM,64.9,6.1,10,29.84,10.0,WNW,17.3,24.2,N/A,,Clear,290,2014-02-15 22:53:00
4:53 PM,62.1,8.1,12,29.89,10.0,WNW,18.4,-,N/A,,Clear,300,2014-02-15 23:53:00
5:53 PM,54.0,8.1,16,29.95,10.0,WNW,5.8,-,N/A,,Clear,290,2014-02-16 00:53:00
6:53 PM,52.0,9.0,18,29.94,10.0,Calm,Calm,-,N/A,,Clear,0,2014-02-16 01:53:00
7:53 PM,52.0,12.0,20,29.93,10.0,SE,5.8,-,N/A,,Clear,140,2014-02-16 02:53:00
8:53 PM,46.9,12.9,25,29.95,10.0,South,10.4,-,N/A,,Clear,170,2014-02-16 03:53:00
9:53 PM,48.9,14.0,25,29.94,10.0,South,6.9,-,N/A,,Clear,170,2014-02-16 04:53:00
10:53 PM,36.0,21.0,55,29.96,10.0,ENE,12.7,-,N/A,,Clear,70,2014-02-16 05:53:00
11:08 PM,36.0,24.1,62,30.17,10.0,East,13.8,-,N/A,,Clear,100,2014-02-16 06:08:00
11:53 PM,30.9,24.1,76,29.99,10.0,ENE,8.1,-,N/A,,Clear,70,2014-02-16 06:53:00